MDT,Max TemperatureF,Mean TemperatureF,Min TemperatureF,Max Dew PointF,MeanDew PointF,Min DewpointF,Max Humidity, Mean Humidity, Min Humidity, Max Sea Level PressureIn, Mean Sea Level PressureIn, Min Sea Level PressureIn, Max VisibilityMiles, Mean VisibilityMiles, Min VisibilityMiles, Max Wind SpeedMPH, Mean Wind SpeedMPH, Max Gust SpeedMPH,PrecipitationIn, CloudCover, Events, WindDirDegrees
2012-9-1,101,78,55,42,36,31,55,33,10,30.09,29.88,29.78,10,10,10,22,11,29,0.00,0,,142
2012-9-2,99,78,57,45,41,37,51,33,14,29.86,29.81,29.77,10,10,9,21,7,25,0.00,0,,33
2012-9-3,93,79,65,60,49,45,55,38,20,29.95,29.87,29.83,10,10,9,31,7,37,T,1,Rain,19
2012-9-4,98,79,59,57,47,31,84,47,10,29.94,29.84,29.72,10,10,10,17,7,25,0.00,0,,243
2012-9-5,89,73,56,43,37,29,51,34,16,29.99,29.88,29.78,10,10,10,23,8,29,T,1,,65
2012-9-6,99,76,53,56,39,19,66,36,6,29.92,29.82,29.72,10,10,7,22,5,28,0.00,0,,264
2012-9-7,80,65,50,56,44,39,67,49,30,30.23,30.01,29.70,10,10,10,31,14,41,0.00,3,,38
2012-9-8,82,63,43,43,38,33,76,49,21,30.29,30.18,30.09,10,10,10,14,5,18,0.00,0,,247
2012-9-9,89,66,42,37,33,29,58,35,12,30.19,30.08,29.96,10,10,10,18,9,31,0.00,0,,181
2012-9-10,97,76,54,46,35,25,43,26,8,29.95,29.81,29.70,10,10,10,24,12,32,0.00,0,,189
2012-9-11,100,77,54,47,40,32,66,38,9,29.73,29.66,29.58,10,10,6,36,9,44,0.00,0,,214
2012-9-12,74,64,53,54,45,33,100,64,27,30.35,30.08,29.69,10,8,4,36,14,41,0.15,6,Rain,12
2012-9-13,70,58,46,52,47,38,96,62,27,30.48,30.38,30.29,10,9,7,13,7,21,0.01,6,,43
2012-9-14,77,58,39,44,38,35,92,58,23,30.42,30.33,30.24,10,10,8,15,5,20,0.00,0,,198
2012-9-15,81,59,36,39,32,23,85,49,12,30.23,30.11,30.01,10,10,10,14,4,16,0.00,0,,179
2012-9-16,93,64,35,38,29,16,76,41,6,30.04,29.90,29.78,10,10,10,20,6,24,0.00,0,,224
2012-9-17,72,58,44,40,38,32,71,51,31,30.13,30.00,29.79,10,10,10,20,9,24,0.00,1,,25
2012-9-18,84,60,36,41,35,28,86,51,15,30.13,30.03,29.92,10,10,9,12,5,16,0.00,0,,247
2012-9-19,93,68,42,35,29,22,58,33,8,29.99,29.95,29.88,10,9,7,17,8,21,0.00,0,,260
2012-9-20,87,64,41,38,33,27,57,36,14,30.06,29.97,29.89,10,10,6,10,4,14,0.00,0,,52
2012-9-21,87,66,44,36,32,30,56,35,13,30.03,29.98,29.93,10,10,9,10,5,14,0.00,0,,208
2012-9-22,80,62,44,35,33,27,53,36,19,30.19,30.10,30.03,10,10,8,21,10,25,0.00,0,,100
2012-9-23,84,64,44,39,35,31,58,39,20,30.16,30.07,29.96,10,10,10,20,7,64,0.00,0,,116
2012-9-24,91,70,48,43,38,32,66,40,13,29.96,29.86,29.75,10,10,7,36,9,45,T,1,Rain,273
2012-9-25,82,66,49,54,43,36,60,42,23,29.99,29.79,29.72,10,10,2,21,7,25,0.15,2,Rain,220
2012-9-26,78,65,51,55,51,42,100,68,35,30.06,29.95,29.85,10,10,10,14,5,17,0.05,2,Rain,224
2012-9-27,75,63,51,56,53,51,100,73,46,30.19,30.08,29.95,10,8,1,25,7,36,0.76,5,Rain,147
2012-9-28,71,61,50,55,53,50,100,77,53,30.22,30.12,30.03,10,7,0,10,4,16,0.01,5,Fog,155
2012-9-29,73,63,53,59,56,52,100,79,57,30.17,30.07,29.97,10,5,0,18,8,23,0.01,3,Fog,89
2012-9-30,84,67,49,57,49,37,100,60,20,30.08,29.98,29.85,10,5,0,24,7,32,0.01,2,Fog-Rain,316